Time,TemperatureF,DewpointF,PressureIn,WindDirection,WindDirectionDegrees,WindSpeedMPH,WindSpeedGustMPH,Humidity,HourlyPrecipIn,Conditions,Clouds,dailyrainin,SoftwareType,DateUTC
2013-02-05 00:02:00,42.2,34.8,30.08,SSE,157,0.0,0.0,75,0.00,CLR,,0.00,WeatherDisplay:10.37,2013-02-05 06:02:00,
2013-02-05 00:07:00,42.2,34.5,30.08,SSE,157,0.0,0.0,74,0.00,CLR,,0.00,WeatherDisplay:10.37,2013-02-05 06:07:00,
2013-02-05 00:12:00,42.2,34.5,30.08,SSE,157,0.0,0.0,74,0.00,CLR,,0.00,WeatherDisplay:10.37,2013-02-05 06:12:00,
2013-02-05 00:17:00,42.2,34.5,30.08,SSE,157,0.0,0.0,74,0.00,CLR,,0.00,WeatherDisplay:10.37,2013-02-05 06:17:00,
2013-02-05 00:22:00,42.2,34.8,30.08,SSE,157,0.0,0.0,75,0.00,CLR,,0.00,WeatherDisplay:10.37,2013-02-05 06:22:00,
2013-02-05 00:27:00,42.2,34.8,30.08,SSE,157,0.0,0.0,75,0.00,CLR,,0.00,WeatherDisplay:10.37,2013-02-05 06:27:00,
2013-02-05 00:33:00,42.2,34.8,30.08,SSE,157,0.0,0.0,75,0.00,CLR,,0.00,WeatherDisplay:10.37,2013-02-05 06:33:00,
2013-02-05 00:38:00,42.2,34.8,30.07,SSE,157,0.0,0.0,75,0.00,CLR,,0.00,WeatherDisplay:10.37,2013-02-05 06:38:00,
2013-02-05 00:43:00,42.1,34.7,30.07,SSE,157,0.0,0.0,75,0.00,CLR,,0.00,WeatherDisplay:10.37,2013-02-05 06:43:00,
2013-02-05 00:48:00,42.1,34.7,30.07,SSE,157,0.0,0.0,75,0.00,CLR,,0.00,WeatherDisplay:10.37,2013-02-05 06:48:00,
2013-02-05 00:53:00,42.1,34.7,30.07,SSE,157,0.0,0.0,75,0.00,CLR,,0.00,WeatherDisplay:10.37,2013-02-05 06:53:00,
2013-02-05 00:58:00,42.1,34.7,30.07,SSE,157,0.0,0.0,75,0.00,CLR,,0.00,WeatherDisplay:10.37,2013-02-05 06:58:00,
2013-02-05 01:03:00,42.1,34.7,30.08,SSE,157,0.0,0.0,75,0.00,CLR,,0.00,WeatherDisplay:10.37,2013-02-05 07:03:00,
2013-02-05 01:08:00,42.1,34.7,30.07,SSE,157,0.0,0.0,75,0.00,CLR,,0.00,WeatherDisplay:10.37,2013-02-05 07:08:00,
2013-02-05 01:13:00,42.1,34.7,30.07,SSE,157,0.0,0.0,75,0.00,CLR,,0.00,WeatherDisplay:10.37,2013-02-05 07:13:00,
2013-02-05 01:18:00,42.1,34.7,30.07,SSE,157,0.0,0.0,75,0.00,CLR,,0.00,WeatherDisplay:10.37,2013-02-05 07:18:00,
2013-02-05 01:23:00,42.2,35.2,30.07,SSE,157,0.0,0.0,76,0.00,CLR,,0.00,WeatherDisplay:10.37,2013-02-05 07:23:00,
2013-02-05 01:28:00,42.2,35.2,30.07,SSE,157,0.0,0.0,76,0.00,CLR,,0.00,WeatherDisplay:10.37,2013-02-05 07:28:00,
2013-02-05 01:33:00,42.2,35.2,30.06,SSE,157,0.0,0.0,76,0.00,CLR,,0.00,WeatherDisplay:10.37,2013-02-05 07:33:00,
2013-02-05 01:38:00,42.3,35.3,30.06,SSE,157,0.0,0.0,76,0.00,CLR,,0.00,WeatherDisplay:10.37,2013-02-05 07:38:00,
2013-02-05 01:43:00,42.3,35.9,30.06,SSE,157,0.0,0.0,78,0.00,CLR,,0.00,WeatherDisplay:10.37,2013-02-05 07:43:00,
2013-02-05 01:48:00,42.3,36.3,30.06,SSE,157,0.0,0.0,79,0.00,CLR,,0.00,WeatherDisplay:10.37,2013-02-05 07:48:00,
2013-02-05 01:53:00,42.3,36.6,30.06,SSE,157,0.0,0.0,80,0.00,CLR,,0.00,WeatherDisplay:10.37,2013-02-05 07:53:00,
2013-02-05 01:58:00,42.2,36.5,30.06,SSE,157,0.0,0.0,80,0.00,CLR,,0.00,WeatherDisplay:10.37,2013-02-05 07:58:00,
2013-02-05 02:03:00,42.2,37.1,30.07,SSE,157,0.0,0.0,82,0.00,CLR,,0.00,WeatherDisplay:10.37,2013-02-05 08:03:00,
2013-02-05 02:08:00,42.2,37.4,30.07,SSE,157,0.0,0.0,83,0.00,CLR,,0.00,WeatherDisplay:10.37,2013-02-05 08:08:00,
2013-02-05 02:13:00,42.1,37.6,30.07,SSE,157,0.0,0.0,84,0.01,RA,,0.01,WeatherDisplay:10.37,2013-02-05 08:13:00,
2013-02-05 02:18:00,42.1,37.9,30.07,SSE,157,0.0,0.0,85,0.01,RA,,0.01,WeatherDisplay:10.37,2013-02-05 08:18:00,
2013-02-05 02:23:00,42.1,38.2,30.07,SSE,157,0.0,0.0,86,0.01,,,0.01,WeatherDisplay:10.37,2013-02-05 08:23:00,
2013-02-05 02:28:00,42.1,38.2,30.07,SSE,157,0.0,0.0,86,0.01,CLR,,0.01,WeatherDisplay:10.37,2013-02-05 08:28:00,
2013-02-05 02:33:00,41.9,38.3,30.08,SSE,157,0.0,0.0,87,0.01,CLR,,0.01,WeatherDisplay:10.37,2013-02-05 08:33:00,
2013-02-05 02:38:00,41.9,38.3,30.07,SSE,157,1.1,1.1,87,0.01,CLR,,0.01,WeatherDisplay:10.37,2013-02-05 08:38:00,
2013-02-05 02:43:00,41.9,38.6,30.08,SSE,157,0.0,0.0,88,0.01,CLR,,0.01,WeatherDisplay:10.37,2013-02-05 08:43:00,
2013-02-05 02:48:00,41.8,38.8,30.08,SSE,157,0.0,0.0,89,0.01,CLR,,0.01,WeatherDisplay:10.37,2013-02-05 08:48:00,
2013-02-05 02:53:00,41.8,38.8,30.08,SSE,157,0.0,0.0,89,0.01,CLR,,0.01,WeatherDisplay:10.37,2013-02-05 08:53:00,
2013-02-05 02:58:00,41.8,39.1,30.08,SSE,157,0.0,0.0,90,0.02,RA,,0.02,WeatherDisplay:10.37,2013-02-05 08:58:00,
2013-02-05 03:03:00,41.6,38.9,30.08,SSE,157,0.0,0.0,90,0.02,RA,,0.02,WeatherDisplay:10.37,2013-02-05 09:03:00,
2013-02-05 03:08:00,41.6,38.9,30.08,SSE,157,0.0,0.0,90,0.02,,,0.02,WeatherDisplay:10.37,2013-02-05 09:08:00,
2013-02-05 03:13:00,41.6,39.2,30.08,SSE,157,0.0,0.0,91,0.01,CLR,,0.02,WeatherDisplay:10.37,2013-02-05 09:13:00,
2013-02-05 03:18:00,41.6,39.2,30.08,SSE,157,0.0,0.0,91,0.01,CLR,,0.02,WeatherDisplay:10.37,2013-02-05 09:18:00,
2013-02-05 03:23:00,41.6,39.2,30.08,SSE,157,0.0,0.0,91,0.01,CLR,,0.02,WeatherDisplay:10.37,2013-02-05 09:23:00,
2013-02-05 03:28:00,41.6,39.4,30.08,SSE,157,0.0,0.0,92,0.02,RA,,0.03,WeatherDisplay:10.37,2013-02-05 09:28:00,
2013-02-05 03:33:00,41.6,39.4,30.08,SSE,157,0.0,0.0,92,0.02,RA,,0.03,WeatherDisplay:10.37,2013-02-05 09:33:00,
2013-02-05 03:38:00,41.6,39.4,30.08,SSE,157,0.0,0.0,92,0.02,,,0.03,WeatherDisplay:10.37,2013-02-05 09:38:00,
2013-02-05 03:43:00,41.6,39.4,30.08,SSE,157,0.0,0.0,92,0.02,CLR,,0.03,WeatherDisplay:10.37,2013-02-05 09:43:00,
2013-02-05 03:48:00,41.6,39.4,30.08,SSE,157,0.0,0.0,92,0.02,CLR,,0.03,WeatherDisplay:10.37,2013-02-05 09:48:00,
2013-02-05 03:53:00,41.5,39.3,30.08,SSE,157,0.0,0.0,92,0.02,CLR,,0.03,WeatherDisplay:10.37,2013-02-05 09:53:00,
2013-02-05 03:58:00,41.5,39.3,30.07,SSE,157,0.0,0.0,92,0.01,CLR,,0.03,WeatherDisplay:10.37,2013-02-05 09:58:00,
2013-02-05 04:03:00,41.6,39.4,30.07,SSE,157,0.0,0.0,92,0.01,CLR,,0.03,WeatherDisplay:10.37,2013-02-05 10:03:00,
2013-02-05 04:08:00,41.6,39.7,30.07,SSE,157,0.0,0.0,93,0.01,CLR,,0.03,WeatherDisplay:10.37,2013-02-05 10:08:00,
2013-02-05 04:13:00,41.5,39.6,30.07,SSE,157,0.0,0.0,93,0.01,CLR,,0.03,WeatherDisplay:10.37,2013-02-05 10:13:00,
2013-02-05 04:18:00,41.5,39.6,30.08,SSE,157,0.0,0.0,93,0.01,CLR,,0.03,WeatherDisplay:10.37,2013-02-05 10:18:00,
2013-02-05 04:23:00,41.5,39.6,30.08,SSE,157,1.1,1.1,93,0.01,CLR,,0.03,WeatherDisplay:10.37,2013-02-05 10:23:00,
2013-02-05 04:28:00,41.5,39.6,30.08,SSE,157,0.0,0.0,93,0.00,CLR,,0.03,WeatherDisplay:10.37,2013-02-05 10:28:00,
2013-02-05 04:33:00,41.6,39.7,30.08,SSE,157,0.0,0.1,93,0.00,CLR,,0.03,WeatherDisplay:10.37,2013-02-05 10:33:00,
2013-02-05 04:38:00,41.6,39.7,30.08,SSE,157,0.0,0.0,93,0.00,CLR,,0.03,WeatherDisplay:10.37,2013-02-05 10:38:00,
2013-02-05 04:43:00,41.6,39.7,30.08,SSE,157,0.0,0.0,93,0.00,CLR,,0.03,WeatherDisplay:10.37,2013-02-05 10:43:00,
2013-02-05 04:48:00,41.6,40.0,30.08,SSE,157,1.1,0.0,94,0.00,CLR,,0.03,WeatherDisplay:10.37,2013-02-05 10:48:00,
2013-02-05 04:53:00,41.6,40.0,30.08,SSE,157,0.0,0.0,94,0.00,CLR,,0.03,WeatherDisplay:10.37,2013-02-05 10:53:00,
2013-02-05 04:58:00,41.6,40.0,30.08,SSE,157,0.0,0.0,94,0.00,CLR,,0.03,WeatherDisplay:10.37,2013-02-05 10:58:00,
2013-02-05 05:03:00,41.5,39.9,30.08,SSE,157,0.0,0.0,94,0.00,CLR,,0.03,WeatherDisplay:10.37,2013-02-05 11:03:00,
2013-02-05 05:08:00,41.5,39.9,30.08,SSE,157,0.0,0.0,94,0.00,CLR,,0.03,WeatherDisplay:10.37,2013-02-05 11:08:00,
2013-02-05 05:13:00,41.5,39.9,30.09,SSE,157,0.0,0.0,94,0.00,CLR,,0.03,WeatherDisplay:10.37,2013-02-05 11:13:00,
2013-02-05 05:18:00,41.5,39.9,30.09,SSE,157,0.0,0.0,94,0.00,CLR,,0.03,WeatherDisplay:10.37,2013-02-05 11:18:00,
2013-02-05 05:23:00,41.5,39.9,30.09,SSE,157,0.0,0.0,94,0.00,CLR,,0.03,WeatherDisplay:10.37,2013-02-05 11:23:00,
2013-02-05 05:28:00,41.5,39.9,30.09,SSE,157,0.0,0.0,94,0.00,CLR,,0.03,WeatherDisplay:10.37,2013-02-05 11:28:00,
2013-02-05 05:33:00,41.5,39.9,30.09,SSE,157,0.0,0.0,94,0.00,CLR,,0.03,WeatherDisplay:10.37,2013-02-05 11:33:00,
2013-02-05 05:38:00,41.5,39.9,30.09,SSE,157,0.0,0.0,94,0.00,CLR,,0.03,WeatherDisplay:10.37,2013-02-05 11:38:00,
2013-02-05 05:43:00,41.6,40.0,30.09,SSE,157,0.0,0.0,94,0.00,CLR,,0.03,WeatherDisplay:10.37,2013-02-05 11:43:00,
2013-02-05 05:48:00,41.6,40.0,30.09,SSE,157,0.0,0.0,94,0.00,CLR,,0.03,WeatherDisplay:10.37,2013-02-05 11:48:00,
2013-02-05 05:53:00,41.6,40.0,30.10,SSE,157,0.0,0.0,94,0.00,CLR,,0.03,WeatherDisplay:10.37,2013-02-05 11:53:00,
2013-02-05 05:58:00,41.6,40.0,30.10,SSE,157,0.0,0.0,94,0.00,CLR,,0.03,WeatherDisplay:10.37,2013-02-05 11:58:00,
2013-02-05 06:03:00,41.6,40.0,30.10,SSE,157,0.0,0.0,94,0.00,CLR,,0.03,WeatherDisplay:10.37,2013-02-05 12:03:00,
2013-02-05 06:08:00,41.5,39.9,30.10,SSE,157,0.0,0.0,94,0.00,CLR,,0.03,WeatherDisplay:10.37,2013-02-05 12:08:00,
2013-02-05 06:13:00,41.3,39.7,30.10,SSE,157,0.0,0.0,94,0.00,CLR,,0.03,WeatherDisplay:10.37,2013-02-05 12:13:00,
2013-02-05 06:18:00,41.3,39.7,30.10,SSE,157,0.0,0.0,94,0.00,CLR,,0.03,WeatherDisplay:10.37,2013-02-05 12:18:00,
2013-02-05 06:23:00,41.3,39.7,30.10,SSE,157,0.0,0.0,94,0.00,CLR,,0.03,WeatherDisplay:10.37,2013-02-05 12:23:00,
2013-02-05 06:28:00,41.3,39.7,30.11,SSE,157,0.0,0.0,94,0.00,CLR,,0.03,WeatherDisplay:10.37,2013-02-05 12:28:00,
2013-02-05 06:33:00,41.3,39.7,30.11,SSE,157,0.0,0.0,94,0.00,CLR,,0.03,WeatherDisplay:10.37,2013-02-05 12:33:00,
2013-02-05 06:38:00,41.3,39.7,30.11,SSE,157,0.0,0.0,94,0.00,CLR,,0.03,WeatherDisplay:10.37,2013-02-05 12:38:00,
2013-02-05 06:43:00,41.5,39.9,30.12,SSE,157,0.0,0.0,94,0.00,CLR,,0.03,WeatherDisplay:10.37,2013-02-05 12:43:00,
2013-02-05 06:48:00,41.5,39.9,30.12,SSE,157,0.0,0.0,94,0.00,CLR,,0.03,WeatherDisplay:10.37,2013-02-05 12:48:00,
2013-02-05 06:53:00,41.5,39.9,30.12,SSE,157,0.0,0.0,94,0.00,CLR,,0.03,WeatherDisplay:10.37,2013-02-05 12:53:00,
2013-02-05 06:58:00,41.6,40.0,30.12,SSE,157,0.0,0.0,94,0.00,CLR,,0.03,WeatherDisplay:10.37,2013-02-05 12:58:00,
2013-02-05 07:03:00,41.6,40.0,30.12,SSE,157,0.0,0.0,94,0.00,CLR,,0.03,WeatherDisplay:10.37,2013-02-05 13:03:00,
2013-02-05 07:08:00,41.8,40.2,30.12,SSE,157,0.0,0.0,94,0.00,CLR,,0.03,WeatherDisplay:10.37,2013-02-05 13:08:00,
2013-02-05 07:13:00,41.8,40.2,30.12,SSE,157,0.0,0.0,94,0.00,CLR,,0.03,WeatherDisplay:10.37,2013-02-05 13:13:00,
2013-02-05 07:18:00,41.8,40.2,30.12,SSE,157,0.0,0.0,94,0.00,CLR,,0.03,WeatherDisplay:10.37,2013-02-05 13:18:00,
2013-02-05 07:23:00,41.9,40.3,30.12,SSE,157,0.0,0.0,94,0.00,CLR,,0.03,WeatherDisplay:10.37,2013-02-05 13:23:00,
2013-02-05 07:28:00,41.9,40.3,30.13,SSE,157,0.0,0.0,94,0.00,CLR,,0.03,WeatherDisplay:10.37,2013-02-05 13:28:00,
2013-02-05 07:33:00,42.1,40.5,30.13,SSE,157,0.0,0.0,94,0.00,CLR,,0.03,WeatherDisplay:10.37,2013-02-05 13:33:00,
2013-02-05 07:38:00,42.1,40.8,30.13,SSE,157,0.0,0.0,95,0.00,CLR,,0.03,WeatherDisplay:10.37,2013-02-05 13:38:00,
2013-02-05 07:43:00,42.2,40.9,30.13,SSE,157,0.0,0.0,95,0.00,CLR,,0.03,WeatherDisplay:10.37,2013-02-05 13:43:00,
2013-02-05 07:48:00,42.2,40.9,30.13,SSE,157,0.0,0.0,95,0.00,CLR,,0.03,WeatherDisplay:10.37,2013-02-05 13:48:00,
2013-02-05 07:53:00,42.3,40.7,30.13,SSE,157,0.0,0.0,94,0.00,CLR,,0.03,WeatherDisplay:10.37,2013-02-05 13:53:00,
2013-02-05 07:58:00,42.5,40.9,30.13,SSE,157,0.0,0.0,94,0.00,CLR,,0.03,WeatherDisplay:10.37,2013-02-05 13:58:00,
2013-02-05 08:03:00,42.5,40.9,30.13,SSE,157,0.0,0.0,94,0.00,CLR,,0.03,WeatherDisplay:10.37,2013-02-05 14:03:00,
2013-02-05 08:08:00,42.6,41.0,30.13,SSE,157,0.0,0.0,94,0.00,CLR,,0.03,WeatherDisplay:10.37,2013-02-05 14:08:00,
2013-02-05 08:13:00,42.8,41.2,30.13,SSE,157,0.0,0.0,94,0.00,CLR,,0.03,WeatherDisplay:10.37,2013-02-05 14:13:00,
2013-02-05 08:18:00,43.1,41.5,30.13,SSE,157,0.0,0.0,94,0.00,CLR,,0.03,WeatherDisplay:10.37,2013-02-05 14:18:00,
2013-02-05 08:23:00,43.3,41.7,30.13,SSE,157,0.0,0.0,94,0.00,CLR,,0.03,WeatherDisplay:10.37,2013-02-05 14:23:00,
2013-02-05 08:29:00,43.5,41.9,30.14,SSE,157,0.0,0.0,94,0.00,CLR,,0.03,WeatherDisplay:10.37,2013-02-05 14:29:00,
2013-02-05 08:34:00,43.6,41.7,30.14,SSE,157,0.0,0.0,93,0.00,CLR,,0.03,WeatherDisplay:10.37,2013-02-05 14:34:00,
2013-02-05 08:39:00,43.9,42.0,30.14,SSE,157,0.0,0.0,93,0.00,CLR,,0.03,WeatherDisplay:10.37,2013-02-05 14:39:00,
2013-02-05 08:44:00,44.1,42.2,30.14,SSE,157,0.0,0.0,93,0.00,CLR,,0.03,WeatherDisplay:10.37,2013-02-05 14:44:00,
2013-02-05 08:49:00,44.2,42.3,30.14,SSE,157,0.0,0.0,93,0.00,CLR,,0.03,WeatherDisplay:10.37,2013-02-05 14:49:00,
2013-02-05 08:54:00,44.3,42.1,30.15,SSE,157,1.1,0.0,92,0.00,CLR,,0.03,WeatherDisplay:10.37,2013-02-05 14:54:00,
2013-02-05 08:59:00,44.5,41.7,30.15,SSE,157,0.0,0.0,90,0.00,CLR,,0.03,WeatherDisplay:10.37,2013-02-05 14:59:00,
2013-02-05 09:04:00,44.6,41.3,30.15,SSE,157,0.0,0.0,88,0.00,CLR,,0.03,WeatherDisplay:10.37,2013-02-05 15:04:00,
2013-02-05 09:09:00,44.9,41.3,30.15,SSE,157,0.0,0.0,87,0.00,CLR,,0.03,WeatherDisplay:10.37,2013-02-05 15:09:00,
2013-02-05 09:14:00,45.2,41.6,30.15,SSE,157,0.0,0.0,87,0.00,CLR,,0.03,WeatherDisplay:10.37,2013-02-05 15:14:00,
2013-02-05 09:19:00,45.7,41.8,30.15,SSE,157,0.0,0.0,86,0.00,CLR,,0.03,WeatherDisplay:10.37,2013-02-05 15:19:00,
2013-02-05 09:24:00,46.1,42.1,30.15,SSE,157,1.1,0.0,86,0.00,CLR,,0.03,WeatherDisplay:10.37,2013-02-05 15:24:00,
2013-02-05 09:29:00,46.5,42.2,30.15,SSE,157,0.0,0.0,85,0.00,CLR,,0.03,WeatherDisplay:10.37,2013-02-05 15:29:00,
2013-02-05 09:34:00,47.4,42.8,30.15,SSE,157,0.0,0.0,84,0.00,CLR,,0.03,WeatherDisplay:10.37,2013-02-05 15:34:00,
2013-02-05 09:39:00,48.5,43.9,30.15,SSE,157,0.0,0.0,84,0.00,CLR,,0.03,WeatherDisplay:10.37,2013-02-05 15:39:00,
2013-02-05 09:44:00,48.9,43.3,30.15,SW,229,0.0,0.0,81,0.00,CLR,,0.03,WeatherDisplay:10.37,2013-02-05 15:44:00,
2013-02-05 09:49:00,49.5,42.9,30.15,West,273,1.1,1.1,78,0.00,CLR,,0.03,WeatherDisplay:10.37,2013-02-05 15:49:00,
2013-02-05 09:54:00,49.8,41.8,30.15,SW,232,3.5,3.5,74,0.00,CLR,,0.03,WeatherDisplay:10.37,2013-02-05 15:54:00,
2013-02-05 09:59:00,49.8,41.8,30.15,WSW,246,1.1,1.1,74,0.00,CLR,,0.03,WeatherDisplay:10.37,2013-02-05 15:59:00,
2013-02-05 10:04:00,50.1,41.8,30.15,West,269,1.1,1.1,73,0.00,CLR,,0.03,WeatherDisplay:10.37,2013-02-05 16:04:00,
2013-02-05 10:09:00,50.2,41.9,30.14,WSW,243,2.3,2.3,73,0.00,CLR,,0.03,WeatherDisplay:10.37,2013-02-05 16:09:00,
2013-02-05 10:14:00,50.5,42.2,30.14,South,186,1.1,1.1,73,0.00,CLR,,0.03,WeatherDisplay:10.37,2013-02-05 16:14:00,
2013-02-05 10:19:00,51.1,42.4,30.14,SW,229,3.5,3.5,72,0.00,CLR,,0.03,WeatherDisplay:10.37,2013-02-05 16:19:00,
2013-02-05 10:24:00,51.7,43.0,30.14,WSW,254,2.3,2.3,72,0.00,CLR,,0.03,WeatherDisplay:10.37,2013-02-05 16:24:00,
2013-02-05 10:29:00,52.2,42.7,30.14,SSW,203,1.0,0.0,70,0.00,CLR,,0.03,WeatherDisplay:10.37,2013-02-05 16:29:00,
2013-02-05 10:34:00,52.6,43.5,30.14,SW,225,2.0,2.0,71,0.00,CLR,,0.03,WeatherDisplay:10.37,2013-02-05 16:34:00,
2013-02-05 10:39:00,52.8,42.9,30.14,SSW,213,1.1,0.0,69,0.00,CLR,,0.03,WeatherDisplay:10.37,2013-02-05 16:39:00,
2013-02-05 10:44:00,53.2,43.3,30.14,South,191,1.1,0.0,69,0.00,CLR,,0.03,WeatherDisplay:10.37,2013-02-05 16:44:00,
2013-02-05 10:49:00,53.3,43.0,30.13,South,173,1.1,1.1,68,0.00,CLR,,0.03,WeatherDisplay:10.37,2013-02-05 16:49:00,
2013-02-05 10:54:00,53.8,43.1,30.13,SSW,202,1.1,0.0,67,0.00,CLR,,0.03,WeatherDisplay:10.37,2013-02-05 16:54:00,
2013-02-05 10:59:00,54.2,43.1,30.13,South,185,1.1,1.1,66,0.00,CLR,,0.03,WeatherDisplay:10.37,2013-02-05 16:59:00,
2013-02-05 11:04:00,54.2,43.5,30.13,West,263,2.3,2.3,67,0.00,CLR,,0.03,WeatherDisplay:10.37,2013-02-05 17:04:00,
2013-02-05 11:09:00,54.5,43.8,30.12,SSW,194,3.5,3.5,67,0.00,CLR,,0.03,WeatherDisplay:10.37,2013-02-05 17:09:00,
2013-02-05 11:14:00,54.7,44.0,30.12,SW,226,3.5,3.5,67,0.00,CLR,,0.03,WeatherDisplay:10.37,2013-02-05 17:14:00,
2013-02-05 11:19:00,54.7,43.2,30.12,WSW,252,3.5,3.5,65,0.00,CLR,,0.03,WeatherDisplay:10.37,2013-02-05 17:19:00,
2013-02-05 11:24:00,55.0,43.8,30.12,South,169,1.1,0.0,66,0.00,CLR,,0.03,WeatherDisplay:10.37,2013-02-05 17:24:00,
2013-02-05 11:29:00,55.1,43.5,30.12,SE,127,4.6,4.6,65,0.00,CLR,,0.03,WeatherDisplay:10.37,2013-02-05 17:29:00,
2013-02-05 11:34:00,55.3,43.7,30.11,South,189,1.1,1.1,65,0.00,CLR,,0.03,WeatherDisplay:10.37,2013-02-05 17:34:00,
2013-02-05 11:39:00,55.3,44.1,30.11,South,188,1.1,1.1,66,0.00,CLR,,0.03,WeatherDisplay:10.37,2013-02-05 17:39:00,
2013-02-05 11:44:00,55.9,44.7,30.11,SSW,211,2.0,2.0,66,0.00,CLR,,0.03,WeatherDisplay:10.37,2013-02-05 17:44:00,
2013-02-05 11:49:00,55.7,43.7,30.11,SE,135,1.1,1.1,64,0.00,CLR,,0.03,WeatherDisplay:10.37,2013-02-05 17:49:00,
2013-02-05 11:54:00,55.7,43.7,30.10,SSW,205,3.5,3.5,64,0.00,CLR,,0.03,WeatherDisplay:10.37,2013-02-05 17:54:00,
2013-02-05 11:59:00,56.2,44.6,30.10,ESE,107,3.5,3.5,65,0.00,CLR,,0.03,WeatherDisplay:10.37,2013-02-05 17:59:00,
2013-02-05 12:04:00,56.2,45.0,30.09,East,94,3.5,3.5,66,0.00,CLR,,0.03,WeatherDisplay:10.37,2013-02-05 18:04:00,
2013-02-05 12:09:00,56.3,44.3,30.09,South,179,3.5,3.5,64,0.00,CLR,,0.03,WeatherDisplay:10.37,2013-02-05 18:09:00,
2013-02-05 12:14:00,56.7,44.7,30.09,ESE,104,1.1,0.0,64,0.00,CLR,,0.03,WeatherDisplay:10.37,2013-02-05 18:14:00,
2013-02-05 12:19:00,57.5,44.6,30.09,South,185,1.1,1.1,62,0.00,CLR,,0.03,WeatherDisplay:10.37,2013-02-05 18:19:00,
2013-02-05 12:24:00,57.6,44.2,30.08,SE,129,1.1,1.1,61,0.00,CLR,,0.03,WeatherDisplay:10.37,2013-02-05 18:24:00,
2013-02-05 12:29:00,58.0,44.6,30.08,SE,138,2.3,2.3,61,0.00,CLR,,0.03,WeatherDisplay:10.37,2013-02-05 18:29:00,
2013-02-05 12:34:00,58.1,44.3,30.08,South,190,2.0,2.0,60,0.00,CLR,,0.03,WeatherDisplay:10.37,2013-02-05 18:34:00,
2013-02-05 12:39:00,58.7,45.7,30.08,SSE,157,2.3,2.3,62,0.00,CLR,,0.03,WeatherDisplay:10.37,2013-02-05 18:39:00,
2013-02-05 12:44:00,59.0,45.1,30.08,SSW,200,1.1,0.0,60,0.00,CLR,,0.03,WeatherDisplay:10.37,2013-02-05 18:44:00,
2013-02-05 12:49:00,59.6,45.2,30.07,South,181,0.0,0.0,59,0.00,CLR,,0.03,WeatherDisplay:10.37,2013-02-05 18:49:00,
2013-02-05 12:54:00,60.4,45.1,30.07,SW,225,3.5,3.5,57,0.00,CLR,,0.03,WeatherDisplay:10.37,2013-02-05 18:54:00,
2013-02-05 12:59:00,61.0,45.7,30.07,SW,219,2.3,2.3,57,0.00,CLR,,0.03,WeatherDisplay:10.37,2013-02-05 18:59:00,
2013-02-05 13:04:00,60.7,44.9,30.07,SW,227,3.5,3.5,56,0.00,CLR,,0.03,WeatherDisplay:10.37,2013-02-05 19:04:00,
2013-02-05 13:09:00,60.9,45.6,30.07,West,278,2.3,2.3,57,0.00,CLR,,0.03,WeatherDisplay:10.37,2013-02-05 19:09:00,
2013-02-05 13:14:00,61.2,45.8,30.07,WSW,242,3.0,3.0,57,0.00,CLR,,0.03,WeatherDisplay:10.37,2013-02-05 19:14:00,
2013-02-05 13:19:00,61.0,45.7,30.06,SW,234,2.0,2.0,57,0.00,CLR,,0.03,WeatherDisplay:10.37,2013-02-05 19:19:00,
2013-02-05 13:24:00,61.2,44.9,30.07,South,188,1.1,1.1,55,0.00,CLR,,0.03,WeatherDisplay:10.37,2013-02-05 19:24:00,
2013-02-05 13:29:00,61.5,45.2,30.06,SW,219,3.5,3.5,55,0.00,CLR,,0.03,WeatherDisplay:10.37,2013-02-05 19:29:00,
2013-02-05 13:34:00,61.6,45.3,30.06,WSW,250,6.0,6.0,55,0.00,CLR,,0.03,WeatherDisplay:10.37,2013-02-05 19:34:00,
2013-02-05 13:40:00,61.3,45.0,30.06,SW,222,2.3,2.3,55,0.00,CLR,,0.03,WeatherDisplay:10.37,2013-02-05 19:40:00,
2013-02-05 13:45:00,61.5,45.2,30.06,WSW,251,2.3,2.3,55,0.00,CLR,,0.03,WeatherDisplay:10.37,2013-02-05 19:45:00,
2013-02-05 13:50:00,61.6,44.8,30.06,South,181,1.1,1.5,54,0.00,CLR,,0.03,WeatherDisplay:10.37,2013-02-05 19:50:00,
2013-02-05 13:55:00,61.8,46.0,30.05,SSW,211,0.0,2.0,56,0.00,CLR,,0.03,WeatherDisplay:10.37,2013-02-05 19:55:00,
2013-02-05 14:00:00,62.1,44.8,30.05,WSW,244,3.5,3.5,53,0.00,CLR,,0.03,WeatherDisplay:10.37,2013-02-05 20:00:00,
2013-02-05 14:05:00,62.0,46.1,30.05,SW,230,0.0,4.0,56,0.00,CLR,,0.03,WeatherDisplay:10.37,2013-02-05 20:05:00,
2013-02-05 14:10:00,62.1,45.7,30.05,SSW,194,1.1,0.0,55,0.00,CLR,,0.03,WeatherDisplay:10.37,2013-02-05 20:10:00,
2013-02-05 14:15:00,62.6,45.2,30.05,South,174,1.1,1.1,53,0.00,CLR,,0.03,WeatherDisplay:10.37,2013-02-05 20:15:00,
2013-02-05 14:20:00,62.6,45.2,30.04,SSW,203,1.1,1.1,53,0.00,CLR,,0.03,WeatherDisplay:10.37,2013-02-05 20:20:00,
2013-02-05 14:25:00,62.6,44.2,30.04,SW,227,2.3,2.3,51,0.00,CLR,,0.03,WeatherDisplay:10.37,2013-02-05 20:25:00,
2013-02-05 14:30:00,62.6,44.7,30.04,SSW,204,2.3,2.3,52,0.00,CLR,,0.03,WeatherDisplay:10.37,2013-02-05 20:30:00,
2013-02-05 14:35:00,62.9,44.5,30.04,WSW,254,1.1,0.0,51,0.00,CLR,,0.03,WeatherDisplay:10.37,2013-02-05 20:35:00,
2013-02-05 14:40:00,63.1,45.2,30.04,SSW,203,1.1,0.0,52,0.00,CLR,,0.03,WeatherDisplay:10.37,2013-02-05 20:40:00,
2013-02-05 14:45:00,63.4,44.9,30.04,WSW,237,1.1,1.1,51,0.00,CLR,,0.03,WeatherDisplay:10.37,2013-02-05 20:45:00,
2013-02-05 14:50:00,63.4,44.9,30.04,SSW,199,2.3,2.3,51,0.00,CLR,,0.03,WeatherDisplay:10.37,2013-02-05 20:50:00,
2013-02-05 14:55:00,63.5,44.5,30.04,SW,217,1.1,1.1,50,0.00,CLR,,0.03,WeatherDisplay:10.37,2013-02-05 20:55:00,
2013-02-05 15:00:00,63.4,44.9,30.04,SW,221,1.1,1.1,51,0.00,CLR,,0.03,WeatherDisplay:10.37,2013-02-05 21:00:00,
2013-02-05 15:05:00,63.5,44.5,30.04,West,275,1.1,1.1,50,0.00,CLR,,0.03,WeatherDisplay:10.37,2013-02-05 21:05:00,
2013-02-05 15:10:00,63.5,44.5,30.04,WNW,288,1.1,1.1,50,0.00,CLR,,0.03,WeatherDisplay:10.37,2013-02-05 21:10:00,
2013-02-05 15:15:00,63.7,44.7,30.04,WNW,288,0.0,0.0,50,0.00,CLR,,0.03,WeatherDisplay:10.37,2013-02-05 21:15:00,
2013-02-05 15:20:00,63.7,44.2,30.04,SW,215,2.3,2.3,49,0.00,CLR,,0.03,WeatherDisplay:10.37,2013-02-05 21:20:00,
2013-02-05 15:25:00,63.9,44.4,30.04,SSW,213,1.1,1.1,49,0.00,CLR,,0.03,WeatherDisplay:10.37,2013-02-05 21:25:00,
2013-02-05 15:30:00,63.9,44.4,30.04,SSW,213,0.0,0.0,49,0.00,CLR,,0.03,WeatherDisplay:10.37,2013-02-05 21:30:00,
2013-02-05 15:35:00,64.0,44.4,30.04,SW,215,0.0,0.0,49,0.00,CLR,,0.03,WeatherDisplay:10.37,2013-02-05 21:35:00,
2013-02-05 15:40:00,63.9,44.4,30.04,SSW,196,1.1,1.1,49,0.00,CLR,,0.03,WeatherDisplay:10.37,2013-02-05 21:40:00,
2013-02-05 15:45:00,63.4,44.4,30.04,SSW,206,0.0,0.0,50,0.00,CLR,,0.03,WeatherDisplay:10.37,2013-02-05 21:45:00,
2013-02-05 15:50:00,63.2,44.8,30.04,SW,214,1.1,1.1,51,0.00,CLR,,0.03,WeatherDisplay:10.37,2013-02-05 21:50:00,
2013-02-05 15:55:00,62.9,44.5,30.04,SSW,198,3.5,3.5,51,0.00,CLR,,0.03,WeatherDisplay:10.37,2013-02-05 21:55:00,
2013-02-05 16:00:00,62.3,44.4,30.04,SSW,192,1.1,1.1,52,0.00,CLR,,0.03,WeatherDisplay:10.37,2013-02-05 22:00:00,
2013-02-05 16:05:00,62.0,44.7,30.04,SSE,167,0.0,0.0,53,0.00,CLR,,0.03,WeatherDisplay:10.37,2013-02-05 22:05:00,
2013-02-05 16:10:00,61.6,44.3,30.04,SW,223,0.0,0.0,53,0.00,CLR,,0.03,WeatherDisplay:10.37,2013-02-05 22:10:00,
2013-02-05 16:15:00,61.5,44.7,30.04,SSW,196,0.0,0.0,54,0.00,CLR,,0.03,WeatherDisplay:10.37,2013-02-05 22:15:00,
2013-02-05 16:20:00,61.3,45.0,30.04,SSW,196,0.0,0.0,55,0.00,CLR,,0.03,WeatherDisplay:10.37,2013-02-05 22:20:00,
2013-02-05 16:25:00,61.0,44.2,30.04,West,281,0.0,0.0,54,0.00,CLR,,0.03,WeatherDisplay:10.37,2013-02-05 22:25:00,
2013-02-05 16:30:00,60.7,44.4,30.04,West,281,1.0,0.0,55,0.00,CLR,,0.03,WeatherDisplay:10.37,2013-02-05 22:30:00,
2013-02-05 16:35:00,60.2,44.0,30.04,SSW,198,0.0,0.0,55,0.00,CLR,,0.03,WeatherDisplay:10.37,2013-02-05 22:35:00,
2013-02-05 16:40:00,60.1,43.9,30.04,SW,223,4.0,4.0,55,0.00,CLR,,0.03,WeatherDisplay:10.37,2013-02-05 22:40:00,
2013-02-05 16:45:00,59.9,44.6,30.04,SW,223,1.1,0.0,57,0.00,CLR,,0.03,WeatherDisplay:10.37,2013-02-05 22:45:00,
2013-02-05 16:50:00,59.5,43.8,30.04,SW,223,0.0,0.0,56,0.00,CLR,,0.03,WeatherDisplay:10.37,2013-02-05 22:50:00,
2013-02-05 16:55:00,59.2,44.0,30.05,SW,223,0.0,0.0,57,0.00,CLR,,0.03,WeatherDisplay:10.37,2013-02-05 22:55:00,
2013-02-05 17:00:00,58.7,44.0,30.05,SW,223,0.0,0.0,58,0.00,CLR,,0.03,WeatherDisplay:10.37,2013-02-05 23:00:00,
2013-02-05 17:05:00,58.3,44.0,30.06,SW,223,0.0,0.0,59,0.00,CLR,,0.03,WeatherDisplay:10.37,2013-02-05 23:05:00,
2013-02-05 17:10:00,57.6,43.8,30.06,SW,223,0.0,0.0,60,0.00,CLR,,0.03,WeatherDisplay:10.37,2013-02-05 23:10:00,
2013-02-05 17:15:00,57.2,44.3,30.06,SW,223,0.0,0.0,62,0.00,CLR,,0.03,WeatherDisplay:10.37,2013-02-05 23:15:00,
2013-02-05 17:20:00,56.6,44.1,30.06,SW,223,0.0,0.0,63,0.00,CLR,,0.03,WeatherDisplay:10.37,2013-02-05 23:20:00,
2013-02-05 17:25:00,56.2,44.2,30.06,SW,232,0.0,0.0,64,0.00,CLR,,0.03,WeatherDisplay:10.37,2013-02-05 23:25:00,
2013-02-05 17:30:00,55.7,43.7,30.06,SW,232,0.0,0.0,64,0.00,CLR,,0.03,WeatherDisplay:10.37,2013-02-05 23:30:00,
2013-02-05 17:35:00,55.3,44.1,30.07,SW,232,0.0,0.0,66,0.00,CLR,,0.03,WeatherDisplay:10.37,2013-02-05 23:35:00,
2013-02-05 17:40:00,54.8,43.7,30.07,SW,232,0.0,0.0,66,0.00,CLR,,0.03,WeatherDisplay:10.37,2013-02-05 23:40:00,
2013-02-05 17:45:00,54.4,43.7,30.07,SW,232,0.0,0.0,67,0.00,CLR,,0.03,WeatherDisplay:10.37,2013-02-05 23:45:00,
2013-02-05 17:50:00,53.8,43.9,30.07,SW,232,0.0,0.0,69,0.00,CLR,,0.03,WeatherDisplay:10.37,2013-02-05 23:50:00,
2013-02-05 17:55:00,53.2,43.7,30.08,SW,232,0.0,0.0,70,0.00,CLR,,0.03,WeatherDisplay:10.37,2013-02-05 23:55:00,
2013-02-05 18:00:00,52.8,43.7,30.08,SW,232,0.0,0.0,71,0.00,CLR,,0.03,WeatherDisplay:10.37,2013-02-06 00:00:00,
2013-02-05 18:05:00,52.2,43.4,30.08,SW,232,0.0,0.0,72,0.00,CLR,,0.03,WeatherDisplay:10.37,2013-02-06 00:05:00,
2013-02-05 18:10:00,51.4,43.0,30.08,SW,232,0.0,0.0,73,0.00,CLR,,0.03,WeatherDisplay:10.37,2013-02-06 00:10:00,
2013-02-05 18:15:00,50.8,43.2,30.09,SW,232,0.0,0.0,75,0.00,CLR,,0.03,WeatherDisplay:10.37,2013-02-06 00:15:00,
2013-02-05 18:20:00,50.2,42.9,30.09,SW,232,0.0,0.0,76,0.00,CLR,,0.03,WeatherDisplay:10.37,2013-02-06 00:20:00,
2013-02-05 18:25:00,49.8,42.9,30.10,SW,232,0.0,0.0,77,0.00,CLR,,0.03,WeatherDisplay:10.37,2013-02-06 00:25:00,
2013-02-05 18:30:00,49.4,42.8,30.10,SW,232,0.0,0.0,78,0.00,CLR,,0.03,WeatherDisplay:10.37,2013-02-06 00:30:00,
2013-02-05 18:35:00,48.9,42.7,30.10,SW,232,0.0,0.0,79,0.00,CLR,,0.03,WeatherDisplay:10.37,2013-02-06 00:35:00,
2013-02-05 18:40:00,48.6,42.4,30.10,SW,232,0.0,0.0,79,0.00,CLR,,0.03,WeatherDisplay:10.37,2013-02-06 00:40:00,
2013-02-05 18:45:00,48.3,42.4,30.10,SW,232,0.0,0.0,80,0.00,CLR,,0.03,WeatherDisplay:10.37,2013-02-06 00:45:00,
2013-02-05 18:50:00,48.0,42.1,30.10,SW,232,0.0,0.0,80,0.00,CLR,,0.03,WeatherDisplay:10.37,2013-02-06 00:50:00,
2013-02-05 18:55:00,47.6,42.1,30.10,SW,232,0.0,0.0,81,0.00,CLR,,0.03,WeatherDisplay:10.37,2013-02-06 00:55:00,
2013-02-05 19:00:00,47.3,42.1,30.10,SW,232,0.0,0.0,82,0.00,CLR,,0.03,WeatherDisplay:10.37,2013-02-06 01:00:00,
2013-02-05 19:05:00,47.0,41.8,30.10,SW,232,0.0,0.0,82,0.00,CLR,,0.03,WeatherDisplay:10.37,2013-02-06 01:05:00,
2013-02-05 19:10:00,46.7,41.5,30.10,SW,232,0.0,0.0,82,0.00,CLR,,0.03,WeatherDisplay:10.37,2013-02-06 01:10:00,
2013-02-05 19:15:00,46.4,41.5,30.10,SW,232,0.0,0.0,83,0.00,CLR,,0.03,WeatherDisplay:10.37,2013-02-06 01:15:00,
2013-02-05 19:20:00,46.1,41.2,30.10,SW,232,0.0,0.0,83,0.00,CLR,,0.03,WeatherDisplay:10.37,2013-02-06 01:20:00,
2013-02-05 19:25:00,45.8,40.9,30.10,SW,232,0.0,0.0,83,0.00,CLR,,0.03,WeatherDisplay:10.37,2013-02-06 01:25:00,
2013-02-05 19:30:00,45.7,41.1,30.11,SW,232,0.0,0.0,84,0.00,CLR,,0.03,WeatherDisplay:10.37,2013-02-06 01:30:00,
2013-02-05 19:35:00,45.4,40.8,30.11,SW,232,0.0,0.0,84,0.00,CLR,,0.03,WeatherDisplay:10.37,2013-02-06 01:35:00,
2013-02-05 19:41:00,45.1,40.9,30.11,SW,232,0.0,0.0,85,0.00,CLR,,0.03,WeatherDisplay:10.37,2013-02-06 01:41:00,
2013-02-05 19:46:00,44.9,41.0,30.11,SW,232,0.0,0.0,86,0.00,CLR,,0.03,WeatherDisplay:10.37,2013-02-06 01:46:00,
2013-02-05 19:51:00,44.8,40.6,30.11,SW,232,0.0,0.0,85,0.00,CLR,,0.03,WeatherDisplay:10.37,2013-02-06 01:51:00,
2013-02-05 19:56:00,44.6,40.4,30.12,SW,232,0.0,0.0,85,0.00,CLR,,0.03,WeatherDisplay:10.37,2013-02-06 01:56:00,
2013-02-05 20:01:00,44.3,40.1,30.12,SW,232,0.0,0.0,85,0.00,CLR,,0.03,WeatherDisplay:10.37,2013-02-06 02:01:00,
2013-02-05 20:06:00,44.2,40.3,30.12,SW,232,0.0,0.0,86,0.00,CLR,,0.03,WeatherDisplay:10.37,2013-02-06 02:06:00,
2013-02-05 20:11:00,43.9,40.0,30.12,SW,232,0.0,0.0,86,0.00,CLR,,0.03,WeatherDisplay:10.37,2013-02-06 02:11:00,
2013-02-05 20:16:00,43.8,40.2,30.12,SW,232,0.0,0.0,87,0.00,CLR,,0.03,WeatherDisplay:10.37,2013-02-06 02:16:00,
2013-02-05 20:21:00,43.6,39.7,30.13,SW,232,1.1,0.0,86,0.00,CLR,,0.03,WeatherDisplay:10.37,2013-02-06 02:21:00,
2013-02-05 20:26:00,43.5,39.9,30.13,SW,232,0.0,0.0,87,0.00,CLR,,0.03,WeatherDisplay:10.37,2013-02-06 02:26:00,
2013-02-05 20:31:00,43.3,39.7,30.13,SW,232,0.0,0.0,87,0.00,CLR,,0.03,WeatherDisplay:10.37,2013-02-06 02:31:00,
2013-02-05 20:36:00,43.2,39.6,30.13,SW,232,0.0,0.0,87,0.00,CLR,,0.03,WeatherDisplay:10.37,2013-02-06 02:36:00,
2013-02-05 20:41:00,43.1,39.8,30.13,SW,232,0.0,0.0,88,0.00,CLR,,0.03,WeatherDisplay:10.37,2013-02-06 02:41:00,
2013-02-05 20:46:00,42.8,39.5,30.14,SW,232,0.0,0.0,88,0.00,CLR,,0.03,WeatherDisplay:10.37,2013-02-06 02:46:00,
2013-02-05 20:51:00,42.6,39.3,30.14,SW,232,0.0,0.0,88,0.00,CLR,,0.03,WeatherDisplay:10.37,2013-02-06 02:51:00,
2013-02-05 20:56:00,42.5,39.2,30.14,SW,232,0.0,0.0,88,0.00,CLR,,0.03,WeatherDisplay:10.37,2013-02-06 02:56:00,
2013-02-05 21:01:00,42.3,39.3,30.15,SW,232,0.0,0.0,89,0.00,CLR,,0.03,WeatherDisplay:10.37,2013-02-06 03:01:00,
2013-02-05 21:06:00,42.2,39.2,30.14,SW,232,0.0,0.0,89,0.00,CLR,,0.03,WeatherDisplay:10.37,2013-02-06 03:06:00,
2013-02-05 21:11:00,42.1,39.1,30.14,SW,232,0.0,0.0,89,0.00,CLR,,0.03,WeatherDisplay:10.37,2013-02-06 03:11:00,
2013-02-05 21:16:00,41.9,38.9,30.14,SW,232,0.0,0.0,89,0.00,CLR,,0.03,WeatherDisplay:10.37,2013-02-06 03:16:00,
2013-02-05 21:21:00,41.8,38.8,30.14,SW,232,0.0,0.0,89,0.00,CLR,,0.03,WeatherDisplay:10.37,2013-02-06 03:21:00,
2013-02-05 21:26:00,41.6,38.6,30.15,SW,232,0.0,0.0,89,0.00,CLR,,0.03,WeatherDisplay:10.37,2013-02-06 03:26:00,
2013-02-05 21:31:00,41.5,38.5,30.15,SW,232,0.0,0.0,89,0.00,CLR,,0.03,WeatherDisplay:10.37,2013-02-06 03:31:00,
2013-02-05 21:36:00,41.3,38.3,30.15,SW,232,0.0,0.0,89,0.00,CLR,,0.03,WeatherDisplay:10.37,2013-02-06 03:36:00,
2013-02-05 21:41:00,41.2,38.5,30.15,SW,232,0.0,0.0,90,0.00,CLR,,0.03,WeatherDisplay:10.37,2013-02-06 03:41:00,
2013-02-05 21:46:00,41.2,38.5,30.15,SW,232,0.0,0.0,90,0.00,CLR,,0.03,WeatherDisplay:10.37,2013-02-06 03:46:00,
2013-02-05 21:51:00,41.1,38.4,30.15,SW,232,0.0,0.0,90,0.00,CLR,,0.03,WeatherDisplay:10.37,2013-02-06 03:51:00,
2013-02-05 21:56:00,41.1,38.4,30.15,SW,232,0.0,0.0,90,0.00,CLR,,0.03,WeatherDisplay:10.37,2013-02-06 03:56:00,
2013-02-05 22:01:00,40.9,38.2,30.15,SW,232,0.0,0.0,90,0.00,CLR,,0.03,WeatherDisplay:10.37,2013-02-06 04:01:00,
2013-02-05 22:06:00,40.6,37.9,30.15,SW,232,0.0,0.0,90,0.00,CLR,,0.03,WeatherDisplay:10.37,2013-02-06 04:06:00,
2013-02-05 22:11:00,40.5,37.8,30.16,SW,232,0.0,0.0,90,0.00,CLR,,0.03,WeatherDisplay:10.37,2013-02-06 04:11:00,
2013-02-05 22:16:00,40.5,37.8,30.16,SW,232,0.0,0.0,90,0.00,CLR,,0.03,WeatherDisplay:10.37,2013-02-06 04:16:00,
2013-02-05 22:21:00,40.2,37.5,30.16,SW,232,0.0,0.0,90,0.00,CLR,,0.03,WeatherDisplay:10.37,2013-02-06 04:21:00,
2013-02-05 22:26:00,40.1,37.4,30.16,SW,232,0.0,0.0,90,0.00,CLR,,0.03,WeatherDisplay:10.37,2013-02-06 04:26:00,
2013-02-05 22:31:00,39.9,37.2,30.16,SW,232,0.0,0.0,90,0.00,CLR,,0.03,WeatherDisplay:10.37,2013-02-06 04:31:00,
2013-02-05 22:36:00,39.8,37.4,30.16,SW,232,0.0,0.0,91,0.00,CLR,,0.03,WeatherDisplay:10.37,2013-02-06 04:36:00,
2013-02-05 22:41:00,39.6,37.2,30.16,SW,232,0.0,0.0,91,0.00,CLR,,0.03,WeatherDisplay:10.37,2013-02-06 04:41:00,
2013-02-05 22:46:00,39.5,37.1,30.16,SW,232,0.0,0.0,91,0.00,CLR,,0.03,WeatherDisplay:10.37,2013-02-06 04:46:00,
2013-02-05 22:51:00,39.5,37.1,30.16,SW,232,0.0,0.0,91,0.00,CLR,,0.03,WeatherDisplay:10.37,2013-02-06 04:51:00,
2013-02-05 22:56:00,39.3,36.9,30.16,SW,232,0.0,0.0,91,0.00,CLR,,0.03,WeatherDisplay:10.37,2013-02-06 04:56:00,
2013-02-05 23:00:00,39.2,36.8,30.16,SW,232,0.0,0.0,91,0.00,CLR,,0.03,WeatherDisplay:10.37,2013-02-06 05:00:00,
2013-02-05 23:02:00,39.2,36.8,30.16,SW,232,0.0,0.0,91,0.00,CLR,,0.03,WeatherDisplay:10.37,2013-02-06 05:02:00,
2013-02-05 23:07:00,38.9,36.5,30.17,SW,232,0.0,0.0,91,0.00,CLR,,0.03,WeatherDisplay:10.37,2013-02-06 05:07:00,
2013-02-05 23:12:00,38.8,36.4,30.17,SW,232,0.0,0.0,91,0.00,CLR,,0.03,WeatherDisplay:10.37,2013-02-06 05:12:00,
2013-02-05 23:17:00,38.6,36.5,30.17,SW,232,0.0,0.0,92,0.00,CLR,,0.03,WeatherDisplay:10.37,2013-02-06 05:17:00,
2013-02-05 23:22:00,38.5,36.4,30.17,SW,232,0.0,0.0,92,0.00,CLR,,0.03,WeatherDisplay:10.37,2013-02-06 05:22:00,
2013-02-05 23:27:00,38.3,36.2,30.17,SW,232,0.0,0.0,92,0.00,CLR,,0.03,WeatherDisplay:10.37,2013-02-06 05:27:00,
2013-02-05 23:32:00,38.2,36.1,30.17,SW,232,0.0,0.0,92,0.00,CLR,,0.03,WeatherDisplay:10.37,2013-02-06 05:32:00,
2013-02-05 23:37:00,37.9,35.8,30.17,SW,232,0.0,0.0,92,0.00,CLR,,0.03,WeatherDisplay:10.37,2013-02-06 05:37:00,
2013-02-05 23:42:00,37.8,35.7,30.17,SW,232,0.0,0.0,92,0.00,CLR,,0.03,WeatherDisplay:10.37,2013-02-06 05:42:00,
2013-02-05 23:47:00,37.6,35.5,30.17,SW,232,0.0,0.0,92,0.00,CLR,,0.03,WeatherDisplay:10.37,2013-02-06 05:47:00,
2013-02-05 23:52:00,37.6,35.5,30.17,SW,232,0.0,0.0,92,0.00,CLR,,0.03,WeatherDisplay:10.37,2013-02-06 05:52:00,
2013-02-05 23:57:00,37.5,35.4,30.17,SW,232,0.0,0.0,92,0.00,CLR,,0.03,WeatherDisplay:10.37,2013-02-06 05:57:00,